Regional Weather Roundup
Issued by NWS

Home | Current Version | Previous Version | Graphics & Text | Print | Product List | Glossary On
Versions: 1 2 3 4 5 6 7 8 9 10 11 12 13 14 15 16 17 18 19 20 21 22 23 24 25 26 27 28 29 30 31 32 33 34 35 36 37 38 39 40 41 42 43 44 45 46 47 48 49 50
000
ASUS43 KBIS 041910
RWRND

NORTH DAKOTA REGIONAL WEATHER ROUNDUP
NATIONAL WEATHER SERVICE BISMARCK ND
200 PM CDT TUE AUG 04 2015

NOTE: "FAIR" INDICATES FEW OR NO CLOUDS BELOW 12,000 FEET WITH NO
SIGNIFICANT WEATHER AND/OR OBSTRUCTIONS TO VISIBILITY.


NDZ001>003-009>011-017-042000-
NORTHWEST NORTH DAKOTA

CITY           SKY/WX    TMP DP  RH WIND       PRES   REMARKS
WILLISTON      SUNNY     85  51  31 SE14      29.93S
MINOT          SUNNY     80  49  33 E10       29.97F
MINOT AFB      SUNNY     81  49  32 SE15      29.96F
$$

NDZ018>021-031>035-040>046-042000-
SOUTHWEST NORTH DAKOTA

CITY           SKY/WX    TMP DP  RH WIND       PRES   REMARKS
BISMARCK       SUNNY     82  55  39 VRB5      29.97F
DICKINSON      SUNNY     83  57  41 SE13G24   29.95F
GARRISON         N/A     80  55  42 E12       29.97F
HETTINGER ARPT SUNNY     84  58  40 SE13G22   29.97F
$$

NDZ004>008-012>016-024-026-027-054-042000-
NORTHEAST NORTH DAKOTA

CITY           SKY/WX    TMP DP  RH WIND       PRES   REMARKS
GRAND FORKS    MOSUNNY   74  54  49 NE7       30.01F
GRND FRKS AFB  SUNNY     74  55  50 VRB6      30.02S
DEVILS LAKE    SUNNY     75  50  41 S6        30.01F
$$

NDZ022-023-025-028>030-036>039-047>053-042000-
SOUTHEAST NORTH DAKOTA

CITY           SKY/WX    TMP DP  RH WIND       PRES   REMARKS
FARGO          SUNNY     80  50  34 NE12      29.99F
JAMESTOWN      SUNNY     78  51  38 E6        30.00S
$$



USA.gov is the U.S. government's official web portal to all federal, state and local government web resources and services.